Change the Weather History Date:

Wednesday, August 7, 2013

  Actual Average Record
Temperature  
Mean Temperature 60 °F -  
Max Temperature 73 °F 79 °F 90 °F (1981)
Min Temperature 48 °F 46 °F 32 °F (2011)
Degree Days  
Heating Degree Days 6    
Growing Degree Days 10 (Base 50)    
Moisture  
Dew Point 43 °F    
Average Humidity 54    
Maximum Humidity 80    
Minimum Humidity 32    
Precipitation  
Precipitation 0.00 in - - ()
Sea Level Pressure  
Sea Level Pressure 29.97 in    
Wind  
Wind Speed 6 mph (South)    
Max Wind Speed 12 mph    
Max Gust Speed -    
Visibility 10 miles    
Events Rain    
Averages and records for this station are not official NWS values.
T = Trace of Precipitation, MM = Missing Value Source: NWS Daily Summary

Daily Weather History Graph

Daily Weather History Graph

Search for Another Location

Airport or City:

Trip Planner

Search our weather history database for the weather conditions in past years. The results will help you decide how hot, cold, wet, or windy it might be!

Date:

Astronomy

Aug. 07, 2013 Rise Set
Actual Time 6:37 AM MDT 8:30 PM MDT
Civil Twilight 6:09 AM MDT 8:58 PM MDT
Nautical Twilight 5:34 AM MDT 9:33 PM MDT
Astronomical Twilight 4:57 AM MDT 10:10 PM MDT
Moon 7:27 AM MDT (8/7) 8:42 PM MDT (8/7)
Length of Visible Light 14h 49m
Length of Day
13h 52m
New Moon, 1% of the Moon is Illuminated
Aug 7
New Moon
Aug 14
First Quarter
Aug 20
Full
Aug 28
Last Quarter
Sep 5
New

Hourly Weather History & Observations

Time (MDT) Temp. Dew Point Humidity Pressure Visibility Wind Dir Wind Speed Gust Speed Precip Events Conditions
12:53 AM 62.1 °F 41.0 °F 46% 29.94 in 10.0 mi SE 8.1 mph - N/A   Overcast
1:53 AM 62.1 °F 42.1 °F 48% 29.95 in 10.0 mi SE 3.5 mph - N/A   Overcast
2:53 AM 60.1 °F 42.1 °F 51% 29.95 in 10.0 mi SSE 11.5 mph - N/A   Overcast
3:53 AM 57.9 °F 44.1 °F 60% 29.96 in 10.0 mi WSW 3.5 mph - 0.00 in   Overcast
4:53 AM 57.0 °F 46.0 °F 67% 29.96 in 10.0 mi West 8.1 mph - 0.00 in Rain Light Rain
5:53 AM 55.0 °F 46.9 °F 74% 29.96 in 10.0 mi SSW 3.5 mph - 0.00 in   Mostly Cloudy
6:53 AM 55.9 °F 45.0 °F 67% 29.97 in 10.0 mi South 5.8 mph - N/A   Overcast
7:53 AM 57.0 °F 46.0 °F 67% 29.97 in 10.0 mi ESE 3.5 mph - N/A   Overcast
8:53 AM 59.0 °F 46.0 °F 62% 29.99 in 10.0 mi NNW 3.5 mph - N/A   Overcast
9:53 AM 61.0 °F 45.0 °F 56% 29.99 in 10.0 mi Calm Calm - N/A   Overcast
10:53 AM 62.1 °F 45.0 °F 53% 30.00 in 10.0 mi Calm Calm - N/A   Overcast
11:53 AM 64.9 °F 44.1 °F 47% 29.99 in 10.0 mi SE 8.1 mph - 0.00 in   Scattered Clouds
12:53 PM 66.0 °F 45.0 °F 47% 29.99 in 10.0 mi SE 9.2 mph - N/A   Overcast
1:53 PM 69.1 °F 39.9 °F 35% 29.97 in 10.0 mi SE 5.8 mph - N/A   Mostly Cloudy
2:53 PM 69.1 °F 42.1 °F 38% 29.96 in 10.0 mi SE 5.8 mph - N/A   Scattered Clouds
3:53 PM 71.1 °F 39.9 °F 32% 29.94 in 10.0 mi Variable 5.8 mph - N/A   Partly Cloudy
4:53 PM 69.1 °F 42.1 °F 38% 29.94 in 10.0 mi SSW 9.2 mph - 0.00 in Rain Light Rain
5:53 PM 68.0 °F 42.1 °F 39% 29.94 in 10.0 mi SW 10.4 mph - 0.00 in   Clear
6:53 PM 69.1 °F 42.1 °F 38% 29.93 in 10.0 mi SSW 6.9 mph - N/A   Mostly Cloudy
7:53 PM 66.0 °F 42.1 °F 42% 29.94 in 10.0 mi SSW 5.8 mph - N/A   Mostly Cloudy
8:53 PM 55.9 °F 41.0 °F 57% 29.99 in 10.0 mi South 4.6 mph - N/A   Clear
9:53 PM 53.1 °F 43.0 °F 69% 30.00 in 10.0 mi West 5.8 mph - N/A   Clear
10:53 PM 48.9 °F 43.0 °F 80% 30.02 in 10.0 mi Calm Calm - N/A   Clear
11:53 PM 51.1 °F 45.0 °F 80% 30.00 in 10.0 mi WSW 3.5 mph - N/A   Mostly Cloudy